Weather History for Albert Lea, MN

Change the Weather History Date:

Tuesday, February 26, 2013

  Actual Average Record
Temperature  
Mean Temperature 27 °F -  
Max Temperature 33 °F 29 °F 46 °F (1998)
Min Temperature 21 °F 16 °F -11 °F (2014)
Degree Days  
Heating Degree Days 38    
Moisture  
Dew Point 26 °F    
Average Humidity 91    
Maximum Humidity 100    
Minimum Humidity 75    
Precipitation  
Precipitation 0.00 in - - ()
Sea Level Pressure  
Sea Level Pressure 29.86 in    
Wind  
Wind Speed 9 mph (NNE)    
Max Wind Speed 21 mph    
Max Gust Speed 30 mph    
Visibility 4 miles    
Events      
Averages and records for this station are not official NWS values.
T = Trace of Precipitation, MM = Missing Value Source: NWS Daily Summary

Daily Weather History Graph

Daily Weather History Graph

Search for Another Location

Airport:

Trip Planner

Search our weather history database for the weather conditions in past years. The results will help you decide how hot, cold, wet, or windy it might be!

Date:

Astronomy

Feb. 26, 2013 Rise Set
Actual Time 6:54 AM CST 5:58 PM CST
Civil Twilight 6:25 AM CST 6:27 PM CST
Nautical Twilight 5:52 AM CST 7:00 PM CST
Astronomical Twilight 5:19 AM CST 7:34 PM CST
Moon 7:20 PM CST (2/26) 6:54 AM CST (2/26)
Length of Visible Light 12h 01m
Length of Day
11h 04m
Full, 99% of the Moon is Illuminated
Feb 26
Full
Mar 4
Last Quarter
Mar 11
New
Mar 19
First Quarter
Mar 27
Full

Hourly Weather History & Observations

Time (CST) Temp. Windchill Dew Point Humidity Pressure Visibility Wind Dir Wind Speed Gust Speed Precip Events Conditions
12:14 AM 24.8 °F 17.9 °F 24.8 °F 100% 29.98 in 1.2 mi NNE 5.8 mph - N/A   Mist
12:34 AM 23.0 °F 15.8 °F 23.0 °F 100% 29.98 in 1.0 mi NNE 5.8 mph - N/A   Mist
12:54 AM 23.0 °F 14.7 °F 23.0 °F 100% 29.97 in 1.5 mi NNE 6.9 mph - N/A   Mist
1:15 AM 24.8 °F 17.9 °F 23.0 °F 93% 29.96 in 2.0 mi NNE 5.8 mph - N/A   Clear
1:34 AM 24.8 °F 16.1 °F 24.8 °F 100% 29.96 in 2.5 mi NNE 8.1 mph - N/A   Clear
1:54 AM 24.8 °F 17.9 °F 24.8 °F 100% 29.97 in 2.5 mi NE 5.8 mph - N/A   Clear
2:15 AM 23.0 °F 15.8 °F 21.2 °F 93% 29.96 in 2.5 mi NNE 5.8 mph - N/A   Clear
2:34 AM 23.0 °F 13.9 °F 23.0 °F 100% 29.95 in 2.5 mi NNE 8.1 mph - N/A   Clear
2:54 AM 23.0 °F 13.9 °F 23.0 °F 100% 29.94 in 2.5 mi NNE 8.1 mph - N/A   Clear
3:14 AM 23.0 °F 13.9 °F 23.0 °F 100% 29.93 in 2.5 mi NNE 8.1 mph - N/A   Clear
3:34 AM 23.0 °F 13.9 °F 23.0 °F 100% 29.92 in 2.5 mi NNE 8.1 mph - N/A   Clear
3:54 AM 23.0 °F 13.9 °F 23.0 °F 100% 29.91 in 2.5 mi NNE 8.1 mph - N/A   Clear
4:14 AM 23.0 °F 13.9 °F 23.0 °F 100% 29.90 in 2.5 mi NNE 8.1 mph - N/A   Clear
4:35 AM 24.8 °F 16.1 °F 24.8 °F 100% 29.90 in 2.5 mi NNE 8.1 mph - N/A   Clear
4:54 AM 23.0 °F 14.7 °F 23.0 °F 100% 29.90 in 2.5 mi NE 6.9 mph - N/A   Clear
5:14 AM 23.0 °F 14.7 °F 23.0 °F 100% 29.90 in 2.5 mi NE 6.9 mph - N/A   Clear
5:35 AM 23.0 °F 15.8 °F 23.0 °F 100% 29.91 in 2.5 mi NE 5.8 mph - N/A   Clear
5:54 AM 23.0 °F 15.8 °F 23.0 °F 100% 29.91 in 2.5 mi NNE 5.8 mph - N/A   Clear
6:14 AM 23.0 °F 13.9 °F 23.0 °F 100% 29.90 in 2.5 mi NNE 8.1 mph - N/A   Clear
6:35 AM 23.0 °F 13.9 °F 23.0 °F 100% 29.90 in 2.5 mi NNE 8.1 mph - N/A   Clear
6:54 AM 21.2 °F 12.6 °F 21.2 °F 100% 29.90 in 2.5 mi NNE 6.9 mph - N/A   Clear
7:14 AM 21.2 °F 12.6 °F 21.2 °F 100% 29.90 in 1.5 mi North 6.9 mph - N/A   Mist
7:35 AM 21.2 °F 12.6 °F 21.2 °F 100% 29.89 in 1.8 mi North 6.9 mph - N/A   Mist
7:54 AM 23.0 °F 11.7 °F 23.0 °F 100% 29.89 in 1.8 mi North 11.5 mph - N/A   Mist
8:14 AM 24.8 °F 14.6 °F 23.0 °F 93% 29.89 in 2.0 mi North 10.4 mph - N/A   Clear
8:34 AM 24.8 °F 14.0 °F 23.0 °F 93% 29.89 in 2.0 mi NNE 11.5 mph - N/A   Clear
8:54 AM 24.8 °F 16.1 °F 23.0 °F 93% 29.90 in 2.5 mi NE 8.1 mph - N/A   Clear
9:15 AM 24.8 °F 16.1 °F 23.0 °F 93% 29.90 in 2.5 mi NE 8.1 mph - N/A   Clear
9:34 AM 26.6 °F 15.7 °F 24.8 °F 93% 29.90 in 3.0 mi NE 12.7 mph - N/A   Clear
9:54 AM 26.6 °F 15.7 °F 24.8 °F 93% 29.90 in 3.0 mi NE 12.7 mph - N/A   Clear
10:14 AM 28.4 °F 18.5 °F 24.8 °F 86% 29.89 in 3.0 mi NE 11.5 mph - N/A   Clear
10:35 AM 28.4 °F 18.5 °F 24.8 °F 86% 29.89 in 3.0 mi NE 11.5 mph - N/A   Clear
10:54 AM 30.2 °F 20.8 °F 26.6 °F 86% 29.88 in 4.0 mi NE 11.5 mph - N/A   Clear
11:14 AM 30.2 °F 19.3 °F 26.6 °F 86% 29.87 in 4.0 mi NNE 15.0 mph - N/A   Clear
11:34 AM 30.2 °F 19.3 °F 26.6 °F 86% 29.87 in 5.0 mi NNE 15.0 mph - N/A   Haze
11:54 AM 32.0 °F 22.5 °F 26.6 °F 80% 29.86 in 5.0 mi NNE 12.7 mph - N/A   Haze
12:14 PM 33.8 °F 23.5 °F 26.6 °F 75% 29.85 in 5.0 mi NE 16.1 mph 20.7 mph N/A   Haze
12:34 PM 33.8 °F 24.3 °F 26.6 °F 75% 29.84 in 7.0 mi NNE 13.8 mph - N/A   Clear
12:54 PM 33.8 °F 23.5 °F 28.4 °F 81% 29.83 in 5.0 mi North 16.1 mph - N/A   Haze
1:15 PM 33.8 °F 23.9 °F 28.4 °F 81% 29.83 in 5.0 mi North 15.0 mph 19.6 mph N/A   Haze
1:34 PM 33.8 °F 23.9 °F 28.4 °F 81% 29.83 in 5.0 mi North 15.0 mph 21.9 mph N/A   Haze
1:55 PM 33.8 °F 23.2 °F 28.4 °F 81% 29.82 in 5.0 mi North 17.3 mph - N/A   Haze
2:15 PM 33.8 °F 23.2 °F 28.4 °F 81% 29.81 in 5.0 mi North 17.3 mph 23.0 mph N/A   Haze
2:34 PM 33.8 °F 23.5 °F 28.4 °F 81% 29.80 in 5.0 mi North 16.1 mph 24.2 mph N/A   Haze
2:54 PM 33.8 °F 23.9 °F 28.4 °F 81% 29.80 in 5.0 mi North 15.0 mph 24.2 mph N/A   Haze
3:14 PM 33.8 °F 22.8 °F 28.4 °F 81% 29.79 in 5.0 mi North 18.4 mph - N/A   Haze
3:34 PM 33.8 °F 23.2 °F 28.4 °F 81% 29.79 in 5.0 mi North 17.3 mph 23.0 mph N/A   Haze
3:55 PM 33.8 °F 22.8 °F 28.4 °F 81% 29.80 in 5.0 mi North 18.4 mph 24.2 mph N/A   Haze
4:14 PM 33.8 °F 22.2 °F 28.4 °F 81% 29.81 in 7.0 mi NNE 20.7 mph 29.9 mph N/A   Scattered Clouds
4:35 PM 33.8 °F 23.2 °F 26.6 °F 75% 29.81 in 10.0 mi NNE 17.3 mph 24.2 mph N/A   Clear
4:54 PM 32.0 °F 21.2 °F 26.6 °F 80% 29.81 in 10.0 mi NNE 16.1 mph - N/A   Clear
5:15 PM 32.0 °F 22.1 °F 26.6 °F 80% 29.81 in 7.0 mi NNE 13.8 mph - N/A   Clear
5:34 PM 32.0 °F 22.5 °F 28.4 °F 87% 29.81 in 7.0 mi NNE 12.7 mph - N/A   Clear
5:54 PM 30.2 °F 21.9 °F 28.4 °F 93% 29.81 in 7.0 mi North 9.2 mph - N/A   Clear
6:15 PM 32.0 °F 24.8 °F 28.4 °F 87% 29.81 in 7.0 mi North 8.1 mph - N/A   Clear
6:34 PM 30.2 °F 21.3 °F 28.4 °F 93% 29.81 in 7.0 mi North 10.4 mph - N/A   Clear
6:55 PM 30.2 °F 20.2 °F 28.4 °F 93% 29.81 in 7.0 mi North 12.7 mph - N/A   Clear
7:14 PM 30.2 °F 19.8 °F 28.4 °F 93% 29.81 in 7.0 mi North 13.8 mph 19.6 mph N/A   Clear
7:34 PM 30.2 °F 20.2 °F 28.4 °F 93% 29.81 in 7.0 mi North 12.7 mph 19.6 mph N/A   Clear
7:55 PM 30.2 °F 19.3 °F 28.4 °F 93% 29.81 in 7.0 mi North 15.0 mph - N/A   Clear
8:14 PM 30.2 °F 20.8 °F 28.4 °F 93% 29.81 in 7.0 mi North 11.5 mph - N/A   Clear
8:34 PM 30.2 °F 21.9 °F 26.6 °F 86% 29.81 in 7.0 mi North 9.2 mph - N/A   Clear
8:55 PM 30.2 °F 21.3 °F 26.6 °F 86% 29.81 in 7.0 mi North 10.4 mph - N/A   Clear
9:14 PM 30.2 °F 21.3 °F 26.6 °F 86% 29.81 in 7.0 mi North 10.4 mph - N/A   Clear
9:34 PM 30.2 °F 21.3 °F 26.6 °F 86% 29.81 in 7.0 mi North 10.4 mph - N/A   Clear
9:55 PM 30.2 °F 20.8 °F 26.6 °F 86% 29.81 in 7.0 mi NNW 11.5 mph - N/A   Clear
10:14 PM 30.2 °F 21.3 °F 26.6 °F 86% 29.80 in 7.0 mi North 10.4 mph - N/A   Clear
10:54 PM 30.2 °F 21.9 °F 26.6 °F 86% 29.81 in 7.0 mi North 9.2 mph - N/A   Clear
11:14 PM 30.2 °F 21.9 °F 26.6 °F 86% 29.81 in 7.0 mi North 9.2 mph - N/A   Clear
11:35 PM 28.4 °F 20.4 °F 26.6 °F 93% 29.80 in 7.0 mi North 8.1 mph - N/A   Clear
11:54 PM 28.4 °F 20.4 °F 26.6 °F 93% 29.80 in 7.0 mi NNW 8.1 mph - N/A   Clear